Location: Unspecified
(42.3650°N, 71.1030°W)
Time: 17:10:23
(UTC+00:00)

Transit 2A - Pass Details

Date: 26 June 2024
Orbit: 591 x 960 km, 66.7° (Epoch: 16 July)

Event Time Altitude Azimuth Distance (km) Brightness Sun altitude
Rises 05:00:22 0° 319° (NW) 3,584 10.1 -24.2°
Reaches altitude 10° 05:03:13 10° 308° (NW) 2,667 9.2 -24.2°
Maximum altitude 05:08:24 28° 252° (WSW) 1,723 7.6 -24.1°
Enters shadow 05:08:45 28° 247° (WSW) 1,729 7.5 -24.1°
